Other Public Products
Issued by NWS Grand Forks, ND

Home | Current Version | Previous Version | Graphics & Text | Print | Product List | Glossary On
Versions: 1 2 3 4 5 6 7 8 9 10 11 12 13 14 15 16 17 18 19 20 21 22 23 24 25 26 27 28 29 30 31 32 33 34 35 36 37 38 39 40 41 42 43 44 45 46 47 48 49 50
000
FPUS83 KFGF 262231
OPUFGF
PRAIRIE TO PINES WEATHER ROUNDUP
NATIONAL WEATHER SERVICE EASTERN NORTH DAKOTA/GRAND FORKS ND
400 PM CST SUN FEB 26 2017

 **SATELLITE DATA USED TO AUGMENT SKY COVER AT AUTOMATED STATIONS**
 *****  WEATHER ACROSS EASTERN NORTH DAKOTA  *****

CITY           SKY/WX    TMP DP  RH WIND       PRES   REMARKS
GRAND FORKS    FAIR      19   4  51 W9        29.86S WCI   8
GRAND FORKS AF FAIR      19   7  59 W8        29.86S WCI   9
GRAND CITY NWS NOT AVBL
BUXTON         NOT AVBL
DEVILS LAKE    FAIR      15   9  76 SW8       29.82R WCI   4
FARGO          FAIR      20   9  62 W7        29.89S WCI  11
WAHPETON ARPT    N/A     19  10  68 SW3       29.91R
$$

 *****  WEATHER ACROSS CENTRAL AND WESTERN NORTH DAKOTA  *****

CITY           SKY/WX    TMP DP  RH WIND       PRES   REMARKS
JAMESTOWN      CLOUDY    21  12  68 W3        29.81R
BISMARCK       MIX PCPN  22  15  75 E10       29.79R WCI  11
MINOT          FAIR      21   9  59 S10       29.77R WCI  10
MINOT AFB      FAIR      20  11  67 SW8       29.77R WCI  11
GARRISON         N/A     22  13  68 CALM      29.77R
WILLISTON      FAIR      24  15  68 NW9       29.78R WCI  14
DICKINSON      CLOUDY    27  18  69 N15       29.70R WCI  15
HETTINGER      CLOUDY    34  21  59 W17       29.71S WCI  23
$$

 *****  OTHER OBSERVATIONS NORTHEAST NORTH DAKOTA  *****

CITY           SKY/WX    TMP DP  RH WIND       PRES   REMARKS
WALHALLA       NOT AVBL
LANGDON        NOT AVBL
CAVALIER         N/A     19   9  63 SW10G22   29.82S WCI   8
GRAFTON        FAIR      19  10  68 SW14      29.86S WCI   6
CANDO          NOT AVBL
FORT TOTTEN      N/A     17   9  69 SW7       29.95  WCI   8
ROLLA          FAIR      14   9  79 SW13      29.76R WCI   0
RUGBY            N/A     10   9  92 S6        29.79S WCI   1
 ***** THE ABOVE OBSERVATIONS ARE NON NWS ARE NOT QUALITY
        CONTROLLED AND MAY MIS-REPORT RAIN FOR SNOW...
$$

 *****  OTHER OBSERVATIONS SOUTHEAST NORTH DAKOTA *****

CITY           SKY/WX    TMP DP  RH WIND       PRES   REMARKS
COOPERSTOWN    MOCLDY    16  10  79 CALM      29.84R
VALLEY CITY    MIX PCPN  21  14  73 SW7       29.85S WCI  13
OAKES          NOT AVBL
GWINNER        MOCLDY    25  18  74 SE3       29.87R
SHEYENNE NWR     N/A     24   9  51 SW3       29.95S
BUFFALO        NOT AVBL
WYNDMERE         N/A     25  12  58 SE2         N/A
 ***** THE ABOVE OBSERVATIONS ARE NON NWS ARE NOT QUALITY
       CONTROLLED AND MAY MIS-REPORT RAIN FOR SNOW...
$$

  *****  WEATHER ACROSS NORTHERN MINNESOTA  *****

CITY           SKY/WX    TMP DP  RH WIND       PRES   REMARKS
FLAG ISLAND    FAIR      19   0  42 W9G22     29.76R WCI   9
WARROAD        FAIR      18   5  57 W14       29.80S WCI   4
ROSEAU         FAIR      18   7  62 W7        29.82R WCI   8
HALLOCK        FAIR      19   9  63 SW9       29.83S WCI   9
THF RVR FALLS  FAIR      15   6  67 SW12      29.86  WCI   2
HALSTAD          N/A     19  10  68 W8          N/A  WCI   9
FOSSTON        FAIR      19   9  63 SW9       29.85S WCI   9
BAUDETTE       FAIR      19   2  47 NW8       29.77R WCI   9
WASKISH        FAIR      18   7  62 SW10      29.81R WCI   6
CROOKSTON      FAIR      18   9  68 W8        29.88S WCI   7
$$
  *****  WEATHER ACROSS CENTRAL AND WEST MINNESOTA  *****

CITY           SKY/WX    TMP DP  RH WIND       PRES   REMARKS
BEMIDJI        FAIR      20   4  50 W10       29.82R WCI   8
PARK RAPIDS    FAIR      23   3  42 W9        29.81R WCI  13
WADENA         FAIR      19   7  58 W6        29.85R WCI  11
DETROIT LAKES  FAIR      21  10  63 W6        29.86R WCI  14
MOORHEAD       FAIR      18   9  68 SW3       29.90S
FERGUS FALLS   PTSUNNY   18  10  73 CALM      29.93R
ELBOW LAKE     MOCLDY    16   8  70 W6        29.89S WCI   7
MORRIS MN      CLOUDY    21  12  68 NW7       29.89R WCI  13
STAPLES        FAIR      19   9  63 W7        29.85R WCI  10
WHEATON        CLOUDY    21  12  68 NE5       29.91S WCI  15
$$
  *****  WEATHER ELSEWHERE ACROSS MINNESOTA  *****

CITY           SKY/WX    TMP DP  RH WIND       PRES   REMARKS
DULUTH         FAIR      21   3  45 W13G20    29.79R WCI   9
INTRNTL FALLS  FAIR      19   1  45 W8        29.78R WCI   9
ELY            FAIR      19  -2  38 W15G23    29.76R WCI   5
CLOQUET        FAIR      21  -2  35 W14       29.81R WCI   8
BRAINERD       FAIR      24   2  38 W8        29.84R WCI  15
HIBBING        FAIR      19   2  47 NW15      29.79R WCI   5
ALEXANDRIA     FAIR      23   8  52 NW8       29.85R WCI  14
SAINT CLOUD    FAIR      31  10  41 NW12      29.85R WCI  22
MINNEAPOLIS    FAIR      36  11  35 W14       29.85R
$$

  *****  WEATHER ACROSS SOUTH DAKOTA  *****

CITY           SKY/WX    TMP DP  RH WIND       PRES   REMARKS
SIOUX FALLS    FAIR      35  26  69 SW6       29.87R
BROOKINGS      FAIR      39  19  44 W13       29.81
WATERTOWN      FAIR      35  20  54 SW6       29.80S
HURON          PTSUNNY   45  15  30 W9G24     29.79F
SISSETON         N/A     25  17  72 NE5       29.86R WCI  19
ABERDEEN       FAIR      32  19  58 S5        29.82F
MITCHELL       PTSUNNY   41  23  48 SW18      29.84S
PIERRE         CLOUDY    42  14  32 W13       29.77R
MOBRIDGE       CLOUDY    39  20  46 NW7       29.73R
RAPID CITY     FAIR      37  15  40 NE7       29.75S
$$

  *****  SOME WEATHER IN NEARBY STATES *****

CITY           SKY/WX    TMP DP  RH WIND       PRES   REMARKS
GLASGOW MT     CLOUDY    24  12  60 N14       29.79R WCI  12
GREAT FALLS MT LGT SNOW  21  14  74 N14       29.73F WCI   8
CHEYENNE WY    FAIR      26  12  55 S9        29.74S WCI  17
SCOTTSBLUFF NE FAIR      33  15  47 W12       29.82S WCI  24
OMAHA NE       FAIR      45  21  38 NE3       29.94R
DES MOINES IA  FAIR      47  20  34 W10       29.93R
DAVENPORT IA   LGT RAIN  44  31  60 W16       29.93R
CHICAGO IL     FAIR      49  21  33 W17G31    29.93R
EAU CLAIRE WI  PTSUNNY   34  22  61 SW12G22   29.80R
LA CROSSE WI   FAIR      40  23  50 W13       29.86R
$$

  *****  SOME NATIONAL WEATHER *****

CITY           SKY/WX    TMP DP  RH WIND       PRES   REMARKS
LA GUARDIA NY  FAIR      44  16  32 W18G24    30.08R
RALEIGH NC     FAIR      55  14  19 W8        30.19R
ATLANTA GA     FAIR      62  15  16 CALM      30.16F
NEW ORLEANS LA PTSUNNY   68  53  58 E18       30.10F
OKLAHOMA CITY  PTSUNNY   58  33  39 VRB3      29.85F
ALBUQUERQUE NM CLOUDY    41  26  55 NE15      29.90F
SALT LAKE CITY FAIR      39  16  39 S18       29.79F
LOS ANGELES CA PTSUNNY   55  46  71 SE6       29.95F
BOISE ID       CLOUDY    37  19  48 SE16      29.71F
SEATTLE WA     LGT RAIN  41  35  79 E3        29.68S
$$

*** WEATHER ACROSS MANITOBA...SASKATCHEWAN AND ONTARIO ***
                ***ONTARIO***

CITY           SKY/WX    TMP DP  RH WIND       PRES   REMARKS
GERALDTON      PTSUNNY   18   5  57 W10G18    29.59R WCI   6
THUNDER BAY    PTSUNNY   18   5  57 NW14G21   29.73R WCI   4
SIOUX LOOKOUT  PTSUNNY   12   0  57 W9        29.71R WCI   0
TORONTO        PTSUNNY   34  18  51 SW15G25   29.99S WCI  24
BIG TROUT LK   MOSUNNY    5  -4  66 W12G17    29.64R WCI -11
PICKLE LAKE    FLURRIES   9   0  66 W13       29.63R WCI  -7
DRYDEN         CLOUDY    14   1  57 W15G22    29.71S WCI  -1
KENORA         MOSUNNY   18   1  49 SW13      29.72S WCI   4
$$
                *** MANITOBA***

CITY           SKY/WX    TMP DP  RH WIND       PRES   REMARKS
BRANDON        LGT SNOW  18  14  86 SW12G18   29.74S VSB 1   WCI   5
DAUPHIN        CLOUDY    23  12  63 W17       29.70S WCI   9
ISLAND LAKE    PTSUNNY    5  -4  66 NW6       29.70R WCI  -6
PILOT MOUND      N/A     16  10  79 SW14        N/A  WCI   1
THE PAS        FLURRIES   9   0  66 N7        29.73R WCI  -3
THOMPSON       MOSUNNY    0 -13  55 N7        29.74R WCI -13
WINNIPEG       PTSUNNY   18   7  62 SW9       29.78F WCI   6
LYNN LAKE      FLURRIES  -8 -17  65 NW13G18   29.75R WCI -28
CHURCHILL      CRYSTALS -18 -22  83 NW18      29.75R WCI -45
GILLAM         MOSUNNY   -8 -17  65 W12       29.72R WCI -27
$$
                ***SASKATCHEWAN***

CITY           SKY/WX    TMP DP  RH WIND       PRES   REMARKS
ESTEVAN        PTSUNNY   21  14  73 NW9       29.74S WCI  11
KINDERSLEY     PTSUNNY   14   1  57 NW16G24   29.79S WCI  -2
LLOYDMINSTER   MOSUNNY    3  -8  60 NW16      29.85S WCI -16
PRINCE ALBERT  MOSUNNY    9  -4  56 N13       29.78R WCI  -7
REGINA         FLURRIES  21  14  73 NW15G22   29.73S WCI   8
YORKTON        SUNNY     19   5  53 NW13      29.71R WC


USA.gov is the U.S. government's official web portal to all federal, state and local government web resources and services.